Regional Weather Roundup
Issued by NWS Charleston, WV

Home | Current Version | Previous Version | Graphics & Text | Print | Product List | Glossary On
Versions: 1 2 3 4 5 6 7 8 9 10 11 12 13 14 15 16 17 18 19 20 21 22 23 24 25 26 27 28 29 30 31 32 33 34 35 36 37 38 39 40 41 42 43 44 45 46 47 48 49 50
000
ASUS41 KRLX 010310
RWRRLX
West Virginia Regional Weather Roundup
National Weather Service Charleston WV
1100 PM EDT MON AUG 31 2015

Note: "fair" indicates few or no clouds below 12,000 feet with no
significant weather and/or obstructions to visibility.

WVZ003-010400-
Northern Panhandle of West Virginia

CITY           SKY/WX    TMP DP  RH WIND       PRES   REMARKS
WHEELING       CLEAR     75  65  70 SW3       30.11R
$$

WVZ009-010400-
Northwest West Virginia

CITY           SKY/WX    TMP DP  RH WIND       PRES   REMARKS
PARKERSBURG    MOCLDY    72  67  84 CALM      30.13R
$$

WVZ006-010400-
Western West Virginia

CITY           SKY/WX    TMP DP  RH WIND       PRES   REMARKS
HUNTINGTON     PTCLDY    72  70  93 CALM      30.11R
$$

WVZ015-010400-
West Central West Virginia

CITY           SKY/WX    TMP DP  RH WIND       PRES   REMARKS
CHARLESTON     PTCLDY    70  67  90 CALM      30.12R
$$

WVZ022-031-010400-
North Central West Virginia

CITY           SKY/WX    TMP DP  RH WIND       PRES   REMARKS
CLARKSBURG     CLOUDY    70  69  97 NE3       30.12R
MORGANTOWN     PTCLDY    76  63  64 CALM      30.13R
$$

WVZ025-035-042-045-010400-
Southern West Virginia

CITY           SKY/WX    TMP DP  RH WIND       PRES   REMARKS
BECKLEY        MOCLDY    65  61  87 E3        30.21R
LOGAN            N/A     72  66  83 CALM      30.16R
BLUEFIELD      CLEAR     68  61  78 W3        30.23R
LEWISBURG      PTCLDY    68  65  89 CALM      30.19S
$$

WVZ047-010400-
Northern Mountains of West Virginia

CITY           SKY/WX    TMP DP  RH WIND       PRES   REMARKS
ELKINS         PTCLDY    65  61  87 CALM      30.18R
$$

WVZ052-010400-
Eastern Panhandle of West Virginia

CITY           SKY/WX    TMP DP  RH WIND       PRES   REMARKS
MARTINSBURG    CLEAR     71  65  81 CALM      30.07R
PETERSBURG     PTCLDY    69  68  97 CALM      30.11S FOG
$$


USA.gov is the U.S. government's official web portal to all federal, state and local government web resources and services.